Regional Weather Roundup
Issued by NWS

Home | Current Version | Previous Version | Graphics & Text | Print | Product List | Glossary On
Versions: 1 2 3 4 5 6 7 8 9 10 11 12 13 14 15 16 17 18 19 20 21 22 23 24 25 26 27 28 29 30 31 32 33 34 35 36 37 38 39 40 41 42 43 44 45 46 47 48 49 50
000
ASUS45 KBOU 291607
RWRCO

WEATHER ROUNDUP FOR COLORADO
NATIONAL WEATHER SERVICE DENVER/BOULDER CO
900 AM MST THU JAN 29 2015

NOTE: "FAIR" INDICATES FEW OR NO CLOUDS BELOW 12000 FEET WITH NO
SIGNIFICANT WEATHER AND/OR OBSTRUCTIONS TO VISIBILITY.

COZ001>005-013-030-031-291700-
...NORTHWEST COLORADO...

CITY           SKY/WX    TMP DP  RH WIND       PRES   REMARKS
CRAIG          FOG       29  27  92 CALM      30.42S VSB<1/4
HAYDEN         MOSUNNY   30  27  86 E9        30.41S WCI  22
MEEKER         MOSUNNY   20  18  92 CALM      30.41R
MOUNT WERNER   NOT AVBL
STEAMBOAT SPGS MOSUNNY   29  26  89 CALM      30.42S
WALDEN         PTSUNNY   30  28  93 CALM      30.43R
$$

COZ006>008-011-291700-
...WEST CENTRAL VALLEYS...

CITY           SKY/WX    TMP DP  RH WIND       PRES   REMARKS
GRAND JUNCTION MOSUNNY   38  29  70 SE9       30.37R
MONTROSE       MOSUNNY   33  27  78 CALM      30.40R
EAGLE          PTSUNNY   30  28  93 CALM      30.45R
RIFLE          SUNNY     32  27  81 CALM      30.40R
DELTA          NOT AVBL
NUCLA          MOSUNNY   34  28  80 CALM      30.40R
$$

COZ017>023-064>068-291700-
...SOUTHWEST COLORADO...

CITY           SKY/WX    TMP DP  RH WIND       PRES   REMARKS
DURANGO        CLOUDY    32  28  85 CALM      30.38R
CORTEZ         PTSUNNY   36  29  75 CALM      30.35S
PAGOSA SPRINGS CLOUDY    33  28  80 CALM      30.41R
TELLURIDE      CLOUDY    30  18  60 SE3       30.39S
WOLF CREEK PAS NOT AVBL
$$

COZ009-010-012-014-032>034-037-058>063-291700-
...CENTRAL COLORADO...

CITY           SKY/WX    TMP DP  RH WIND       PRES   REMARKS
ASPEN          MOSUNNY   29  18  63 SW5       30.40R WCI  24
BUENA VISTA    CLOUDY    29  19  66 W3        30.49R
COPPER MTN     MOSUNNY   27  16  63 E7        30.45S WCI  19
BERTHOUD PASS  FAIR      14  10  85 MISG      30.46R
COTTONWOOD PAS PTSUNNY   28  21  74 CALM      30.47R
GUNNISON       PTSUNNY   10   7  85 CALM      30.49R
KREMMLING      MOSUNNY   25  21  86 CALM      30.46R
LEADVILLE      MOSUNNY   20  11  68 CALM      30.44R
MONARCH PASS   CLOUDY    18  16  93 MISG      30.55R
SALIDA         CLOUDY    32  21  63 NW8       30.56R WCI  25
SUNLIGHT       SUNNY     27  23  86 E5          N/A  WCI  21
WILKERSON PASS PTSUNNY   21  19  93 CALM      30.50R FOG
$$

COZ069>075-291700-
...SAN LUIS VALLEY/SANGRE DE CRISTO MOUNTAINS...

CITY           SKY/WX    TMP DP  RH WIND       PRES   REMARKS
ALAMOSA        CLOUDY    32  22  66 NE3       30.42R
LA VETA PASS   NOT AVBL
SAGUACHE       CLOUDY    30  23  74 N7        30.43R WCI  23
$$

COZ035-036-038>040-291700-
...NORTHERN COLORADO FRONT RANGE...

CITY           SKY/WX    TMP DP  RH WIND       PRES   REMARKS
DENVER INTL AP CLOUDY    37  26  64 NE9       30.50R
DMNS CITY PARK   N/A     38  26  61 E7        30.51S
AURORA         CLOUDY    36  26  69 NE5       30.51R
FRONT RANGE AP NOT AVBL
ERIE MUNI ARPT CLOUDY    38  29  68 CALM      30.51S
BOULDER MUN AP CLOUDY    37  27  65 E3        30.51R
CENTENNIAL     CLOUDY    36  26  67 NE6       30.50R
BROOMFIELD     CLOUDY    37  27  65 CALM      30.51R
FORT COLLINS   CLOUDY    37  28  70 SW5       30.51S
LONGMONT       PTSUNNY   44  28  54 CALM      30.53R
$$

COZ041-046-047-076>085-087-088-291700-
...PIKES PEAK/PALMER DIVIDE AND SOUTHERN FOOTHILLS...

CITY           SKY/WX    TMP DP  RH WIND       PRES   REMARKS
COLO. SPRINGS  PTSUNNY   38  28  67 SE5       30.50R
A. F. ACADEMY  CLOUDY    35  26  68 CALM      30.48R
ELLICOTT       CLOUDY   N/A N/A N/A CALM      30.49R
FALCON         NOT AVBL
FORT CARSON    CLOUDY    39  28  63 SW7       30.49R
LIMON          PTSUNNY   35  26  69 N12       30.50R WCI  27
MONUMENT HILL  CLOUDY    30  27  86 N6        30.48R WCI  24
TRINIDAD       CLOUDY    38  29  70 CALM      30.52R
$$

COZ042>045-048>051-090-091-291700-
...NORTHEAST COLORADO...

CITY           SKY/WX    TMP DP  RH WIND       PRES   REMARKS
GREELEY ARPT   CLOUDY    37  27  65 CALM      30.50R
AKRON          PTSUNNY   37  25  61 W13       30.48R
BURLINGTON     MOSUNNY   37  26  64 NW9       30.49R
WRAY           SUNNY     37  27  66 N13       30.50R
STERLING       PTSUNNY   43  25  49 NW15      30.48R
HOLYOKE        SUNNY     34  28  80 NW7       30.50R WCI  28
FORT MORGAN    CLOUDY    37  26  66 W7        30.51R
$$

COZ086-089-092>099-291700-
...SOUTHEAST COLORADO...

CITY           SKY/WX    TMP DP  RH WIND       PRES   REMARKS
PUEBLO         CLOUDY    42  28  57 CALM      30.51R
LA JUNTA       CLOUDY    44  30  57 NW5       30.51R
LAMAR          CLOUDY    43  31  62 W5        30.49R
SPRINGFIELD      N/A     40  27  59 NW8       30.50R
$$


USA.gov is the U.S. government's official web portal to all federal, state and local government web resources and services.